timestamp,wind_dir_avg,wind_spd_avg,wind_spd_max_dir,wind_spd_gust,battery_voltage,lat,long
2022-09-06 00:04:01+00:00,45.0,11.12,40.0,11.9,12.49,47.59359,-54.27349
2022-09-06 00:14:01+00:00,46.0,10.22,49.0,11.11,12.41,47.59359,-54.27349
2022-09-06 00:24:01+00:00,42.0,10.06,41.0,11.06,12.41,47.59359,-54.27349
2022-09-06 00:34:01+00:00,49.0,9.21,50.0,9.97,12.41,47.59359,-54.27349
2022-09-06 00:44:01+00:00,41.0,9.49,44.0,10.17,12.41,47.59359,-54.27349
2022-09-06 00:54:01+00:00,50.0,9.09,50.0,9.97,12.41,47.59359,-54.27349
2022-09-06 01:04:01+00:00,50.0,9.46,54.0,10.12,12.41,47.59359,-54.27349
2022-09-06 11:14:00+00:00,47.0,8.77,50.0,9.93,12.25,47.59359,-54.27349
2022-09-06 11:24:00+00:00,53.0,6.8,51.0,8.09,12.25,47.59359,-54.27349
2022-09-06 11:34:00+00:00,49.0,8.08,46.0,9.06,12.25,47.59359,-54.27349
2022-09-06 11:44:00+00:00,49.0,7.76,54.0,9.08,12.25,47.59359,-54.27349
2022-09-06 11:54:00+00:00,52.0,7.52,47.0,8.59,12.25,47.59359,-54.27349
2022-09-06 12:04:00+00:00,46.0,6.96,42.0,8.1,12.25,47.59359,-54.27349
2022-09-06 12:14:01+00:00,49.0,8.48,52.0,9.59,12.41,47.59359,-54.27349
2022-09-06 12:24:01+00:00,56.0,7.18,48.0,8.79,12.41,47.59359,-54.27349
2022-09-06 12:34:01+00:00,58.0,8.75,56.0,9.54,12.41,47.59359,-54.27349
2022-09-06 12:44:01+00:00,69.0,8.27,66.0,9.64,12.41,47.59359,-54.27349
2022-09-06 12:54:01+00:00,70.0,7.06,67.0,8.11,12.41,47.59359,-54.27349
2022-09-06 13:04:01+00:00,72.0,6.83,75.0,7.61,12.41,47.59359,-54.27349
2022-09-06 13:14:00+00:00,66.0,6.46,70.0,7.58,12.89,47.59359,-54.27349
2022-09-06 13:24:00+00:00,58.0,7.29,55.0,8.17,12.89,47.59359,-54.27349
2022-09-06 13:34:00+00:00,41.0,6.82,54.0,8.71,12.89,47.59359,-54.27349
2022-09-06 13:44:00+00:00,38.0,7.25,41.0,7.84,12.89,47.59359,-54.27349
2022-09-06 13:54:00+00:00,37.0,7.12,40.0,8.65,12.89,47.59359,-54.27349
2022-09-06 14:04:00+00:00,59.0,6.55,62.0,7.42,12.89,47.59359,-54.27349
2022-09-06 14:14:00+00:00,45.0,6.75,45.0,7.84,13.13,47.59359,-54.27349
2022-09-06 14:24:00+00:00,43.0,7.88,52.0,9.69,13.13,47.59359,-54.27349
2022-09-06 14:34:00+00:00,46.0,8.58,49.0,9.49,13.13,47.59359,-54.27349
2022-09-06 14:44:00+00:00,56.0,6.85,55.0,7.6,13.13,47.59359,-54.27349
2022-09-06 14:54:00+00:00,43.0,9.05,44.0,10.24,13.13,47.59359,-54.27349
2022-09-06 15:04:00+00:00,40.0,9.38,52.0,11.82,13.13,47.59359,-54.27349
2022-09-06 15:14:00+00:00,39.0,7.88,43.0,9.31,13.37,47.59359,-54.27349
2022-09-06 15:24:00+00:00,44.0,7.57,47.0,8.19,13.37,47.59359,-54.27349
2022-09-06 15:34:00+00:00,43.0,8.68,47.0,10.13,13.37,47.59359,-54.27349
2022-09-06 15:44:00+00:00,38.0,8.13,40.0,9.04,13.37,47.59359,-54.27349
2022-09-06 15:54:00+00:00,45.0,7.97,49.0,9.54,13.37,47.59359,-54.27349
2022-09-06 16:04:00+00:00,36.0,8.2,36.0,9.07,13.37,47.59359,-54.27349
2022-09-06 16:14:00+00:00,50.0,7.24,50.0,8.44,13.53,47.59359,-54.27349
2022-09-06 16:24:00+00:00,48.0,6.61,44.0,7.74,13.53,47.59359,-54.27349
2022-09-06 16:34:00+00:00,44.0,7.88,45.0,8.78,13.53,47.59359,-54.27349
2022-09-06 16:44:00+00:00,39.0,6.96,44.0,8.05,13.53,47.59359,-54.27349
2022-09-06 16:54:00+00:00,38.0,8.35,44.0,9.46,13.53,47.59359,-54.27349
2022-09-06 17:04:00+00:00,30.0,7.56,30.0,8.86,13.53,47.59359,-54.27349
2022-09-06 17:14:00+00:00,37.0,6.92,37.0,7.94,13.44,47.59359,-54.27349
2022-09-06 17:24:00+00:00,40.0,8.38,38.0,9.31,13.44,47.59359,-54.27349
2022-09-06 17:34:00+00:00,41.0,7.52,47.0,8.85,13.44,47.59359,-54.27349
2022-09-06 17:44:00+00:00,43.0,9.23,44.0,10.44,13.44,47.59359,-54.27349
2022-09-06 17:54:00+00:00,40.0,8.23,41.0,8.95,13.44,47.59359,-54.27349
2022-09-06 18:04:00+00:00,37.0,8.56,40.0,9.62,13.44,47.59359,-54.27349
2022-09-06 18:14:01+00:00,37.0,8.36,34.0,9.46,13.6,47.59359,-54.27349
2022-09-06 18:24:01+00:00,41.0,8.29,37.0,9.74,13.6,47.59359,-54.27349
2022-09-06 18:34:01+00:00,39.0,8.14,40.0,9.15,13.6,47.59359,-54.27349
2022-09-06 18:44:01+00:00,36.0,9.22,36.0,10.07,13.6,47.59359,-54.27349
2022-09-06 18:54:01+00:00,39.0,8.77,37.0,10.14,13.6,47.59359,-54.27349
2022-09-06 19:04:01+00:00,45.0,8.31,44.0,9.55,13.6,47.59359,-54.27349
2022-09-06 19:14:00+00:00,48.0,8.37,51.0,8.96,13.84,47.59359,-54.27349
2022-09-06 19:24:00+00:00,36.0,7.94,33.0,8.92,13.84,47.59359,-54.27349
2022-09-06 19:34:00+00:00,39.0,8.68,40.0,10.48,13.84,47.59359,-54.27349
2022-09-06 19:44:00+00:00,56.0,8.1,56.0,8.87,13.84,47.59359,-54.27349
2022-09-06 19:54:00+00:00,51.0,7.99,50.0,9.2,13.84,47.59359,-54.27349
2022-09-06 20:04:00+00:00,53.0,8.27,48.0,9.16,13.84,47.59359,-54.27349
2022-09-06 20:14:01+00:00,52.0,8.03,52.0,9.61,13.53,47.59359,-54.27349
2022-09-06 20:24:01+00:00,36.0,7.29,34.0,8.01,13.53,47.59359,-54.27349
2022-09-06 20:34:01+00:00,64.0,6.91,58.0,8.7,13.53,47.59359,-54.27349
2022-09-06 20:44:01+00:00,64.0,7.07,60.0,8.07,13.53,47.59359,-54.27349
2022-09-06 20:54:01+00:00,57.0,8.37,51.0,10.35,13.53,47.59359,-54.27349
2022-09-06 21:04:01+00:00,42.0,8.36,44.0,9.36,13.53,47.59359,-54.27349
2022-09-06 21:14:00+00:00,54.0,8.03,47.0,9.46,12.97,47.59359,-54.27349
2022-09-06 21:24:00+00:00,40.0,7.72,39.0,8.78,12.97,47.59359,-54.27349
2022-09-06 21:34:00+00:00,36.0,9.13,38.0,10.32,12.97,47.59359,-54.27349
2022-09-06 21:44:00+00:00,44.0,8.07,49.0,8.77,12.97,47.59359,-54.27349
2022-09-06 21:54:00+00:00,40.0,7.87,34.0,8.76,12.97,47.59359,-54.27349
2022-09-06 22:04:00+00:00,22.0,7.92,27.0,9.41,12.97,47.59359,-54.27349
2022-09-06 22:14:00+00:00,26.0,8.64,28.0,9.7,12.57,47.59359,-54.27349
2022-09-06 22:24:00+00:00,26.0,9.01,32.0,10.0,12.57,47.59359,-54.27349
2022-09-06 22:34:00+00:00,35.0,8.15,35.0,9.35,12.57,47.59359,-54.27349
2022-09-06 22:44:00+00:00,39.0,8.74,42.0,9.66,12.57,47.59359,-54.27349
2022-09-06 22:54:00+00:00,40.0,9.05,43.0,9.98,12.57,47.59359,-54.27349
2022-09-06 23:04:00+00:00,29.0,8.34,31.0,9.7,12.57,47.59359,-54.27349
2022-09-06 23:14:00+00:00,37.0,9.59,39.0,10.79,12.49,47.59359,-54.27349
2022-09-06 23:24:00+00:00,28.0,8.73,28.0,9.68,12.49,47.59359,-54.27349
2022-09-06 23:34:00+00:00,27.0,7.78,32.0,8.79,12.49,47.59359,-54.27349
2022-09-06 23:44:00+00:00,34.0,7.43,36.0,8.44,12.49,47.59359,-54.27349
2022-09-06 23:54:00+00:00,26.0,7.87,26.0,9.15,12.49,47.59359,-54.27349
